Time,TemperatureF,DewpointF,PressureIn,WindDirection,WindDirectionDegrees,WindSpeedMPH,WindSpeedGustMPH,Humidity,HourlyPrecipIn,Conditions,Clouds,dailyrainin,SoftwareType,DateUTC
2013-03-21 00:00:00,20.1,11.6,30.09,WNW,296,7.0,7.0,69,0.00,,,0.00,Wunderground v.1.15,2013-03-21 05:00:00,
2013-03-21 00:05:00,20.1,11.9,30.09,NW,322,6.0,7.0,70,0.00,,,0.00,Wunderground v.1.15,2013-03-21 05:05:00,
2013-03-21 00:10:00,20.0,11.8,30.09,North,356,6.0,6.0,70,0.00,,,0.00,Wunderground v.1.15,2013-03-21 05:10:00,
2013-03-21 00:15:00,20.0,11.8,30.10,WNW,293,6.0,9.0,70,0.00,,,0.00,Wunderground v.1.15,2013-03-21 05:15:00,
2013-03-21 00:20:00,19.9,11.7,30.10,WNW,285,6.0,8.0,70,0.00,,,0.00,Wunderground v.1.15,2013-03-21 05:20:00,
2013-03-21 00:25:00,19.8,11.6,30.09,WNW,297,6.0,8.0,70,0.00,,,0.00,Wunderground v.1.15,2013-03-21 05:25:00,
2013-03-21 00:30:00,19.7,11.5,30.09,NNW,335,7.0,7.0,70,0.00,,,0.00,Wunderground v.1.15,2013-03-21 05:30:00,
2013-03-21 00:35:00,19.7,11.8,30.09,NNW,332,6.0,8.0,71,0.00,,,0.00,Wunderground v.1.15,2013-03-21 05:35:00,
2013-03-21 00:40:00,19.6,12.0,30.09,NW,304,6.0,6.0,72,0.00,,,0.00,Wunderground v.1.15,2013-03-21 05:40:00,
2013-03-21 00:50:00,19.4,12.2,30.09,NNW,328,5.0,5.0,73,0.00,,,0.00,Wunderground v.1.15,2013-03-21 05:50:00,
2013-03-21 00:55:00,19.4,12.2,30.09,WNW,296,5.0,5.0,73,0.00,,,0.00,Wunderground v.1.15,2013-03-21 05:55:00,
2013-03-21 01:00:00,19.3,12.1,30.09,NNW,330,6.0,6.0,73,0.00,,,0.00,Wunderground v.1.15,2013-03-21 06:00:00,
2013-03-21 01:05:00,19.2,12.0,30.08,NNE,13,5.0,6.0,73,0.00,,,0.00,Wunderground v.1.15,2013-03-21 06:05:00,
2013-03-21 01:15:00,19.0,12.4,30.08,WNW,302,4.0,5.0,75,0.00,,,0.00,Wunderground v.1.15,2013-03-21 06:15:00,
2013-03-21 01:20:00,18.9,12.3,30.08,NNW,328,4.0,4.0,75,0.00,,,0.00,Wunderground v.1.15,2013-03-21 06:20:00,
2013-03-21 01:25:00,18.8,12.2,30.08,NNW,333,4.0,4.0,75,0.00,,,0.00,Wunderground v.1.15,2013-03-21 06:25:00,
2013-03-21 01:30:00,18.7,11.8,30.09,NW,319,4.0,5.0,74,0.00,,,0.00,Wunderground v.1.15,2013-03-21 06:30:00,
2013-03-21 01:40:00,18.6,11.4,30.09,WNW,295,5.0,5.0,73,0.00,,,0.00,Wunderground v.1.15,2013-03-21 06:40:00,
2013-03-21 01:45:00,18.5,10.7,30.08,WNW,290,6.0,6.0,71,0.00,,,0.00,Wunderground v.1.15,2013-03-21 06:45:00,
2013-03-21 01:50:00,18.3,10.5,30.08,NW,325,6.0,6.0,71,0.00,,,0.00,Wunderground v.1.15,2013-03-21 06:50:00,
2013-03-21 01:55:00,18.2,10.4,30.08,NW,314,7.0,8.0,71,0.00,,,0.00,Wunderground v.1.15,2013-03-21 06:55:00,
2013-03-21 02:00:00,18.1,10.3,30.09,NW,324,7.0,7.0,71,0.00,,,0.00,Wunderground v.1.15,2013-03-21 07:00:00,
2013-03-21 02:05:00,17.9,10.4,30.09,NW,309,6.0,8.0,72,0.00,,,0.00,Wunderground v.1.15,2013-03-21 07:05:00,
2013-03-21 02:10:00,17.8,10.3,30.09,North,5,5.0,5.0,72,0.00,,,0.00,Wunderground v.1.15,2013-03-21 07:10:00,
2013-03-21 02:15:00,17.7,10.5,30.09,ENE,59,4.0,5.0,73,0.00,,,0.00,Wunderground v.1.15,2013-03-21 07:15:00,
2013-03-21 02:25:00,17.4,10.5,30.09,NW,325,3.0,4.0,74,0.00,,,0.00,Wunderground v.1.15,2013-03-21 07:25:00,
2013-03-21 02:35:00,17.3,10.1,30.09,North,8,4.0,7.0,73,0.00,,,0.00,Wunderground v.1.15,2013-03-21 07:35:00,
2013-03-21 02:45:00,17.1,9.9,30.09,WNW,292,4.0,8.0,73,0.00,,,0.00,Wunderground v.1.15,2013-03-21 07:45:00,
2013-03-21 02:50:00,17.0,9.8,30.09,North,352,4.0,4.0,73,0.00,,,0.00,Wunderground v.1.15,2013-03-21 07:50:00,
2013-03-21 02:55:00,16.8,9.6,30.09,NE,36,4.0,4.0,73,0.00,,,0.00,Wunderground v.1.15,2013-03-21 07:55:00,
2013-03-21 03:00:00,16.7,9.5,30.09,NNE,33,3.0,4.0,73,0.00,,,0.00,Wunderground v.1.15,2013-03-21 08:00:00,
2013-03-21 03:10:00,16.5,9.4,30.09,NNE,25,4.0,4.0,73,0.00,,,0.00,Wunderground v.1.15,2013-03-21 08:10:00,
2013-03-21 03:15:00,16.4,9.6,30.08,NNE,25,4.0,4.0,74,0.00,,,0.00,Wunderground v.1.15,2013-03-21 08:15:00,
2013-03-21 03:20:00,16.3,9.5,30.09,NE,37,3.0,4.0,74,0.00,,,0.00,Wunderground v.1.15,2013-03-21 08:20:00,
2013-03-21 03:25:00,16.3,9.5,30.09,North,4,3.0,4.0,74,0.00,,,0.00,Wunderground v.1.15,2013-03-21 08:25:00,
2013-03-21 03:30:00,16.2,9.4,30.08,NW,304,3.0,6.0,74,0.00,,,0.00,Wunderground v.1.15,2013-03-21 08:30:00,
2013-03-21 03:35:00,16.1,9.6,30.08,NW,322,3.0,6.0,75,0.00,,,0.00,Wunderground v.1.15,2013-03-21 08:35:00,
2013-03-21 03:40:00,16.0,9.5,30.08,NNE,19,3.0,3.0,75,0.00,,,0.00,Wunderground v.1.15,2013-03-21 08:40:00,
2013-03-21 03:50:00,15.8,9.3,30.08,North,349,3.0,4.0,75,0.00,,,0.00,Wunderground v.1.15,2013-03-21 08:50:00,
2013-03-21 04:01:00,15.7,9.5,30.08,NW,309,3.0,3.0,76,0.00,,,0.00,Wunderground v.1.15,2013-03-21 09:01:00,
2013-03-21 04:05:00,15.6,9.4,30.07,NW,304,3.0,3.0,76,0.00,,,0.00,Wunderground v.1.15,2013-03-21 09:05:00,
2013-03-21 04:15:00,15.4,9.5,30.07,NW,304,2.0,4.0,77,0.00,,,0.00,Wunderground v.1.15,2013-03-21 09:15:00,
2013-03-21 04:25:00,15.2,9.3,30.07,NNE,30,3.0,5.0,77,0.00,,,0.00,Wunderground v.1.15,2013-03-21 09:25:00,
2013-03-21 04:30:00,15.2,9.3,30.07,NW,322,3.0,3.0,77,0.00,,,0.00,Wunderground v.1.15,2013-03-21 09:30:00,
2013-03-21 04:35:00,15.1,9.2,30.07,NNW,342,2.0,3.0,77,0.00,,,0.00,Wunderground v.1.15,2013-03-21 09:35:00,
2013-03-21 04:40:00,15.0,9.4,30.07,NW,312,2.0,4.0,78,0.00,,,0.00,Wunderground v.1.15,2013-03-21 09:40:00,
2013-03-21 04:50:00,14.9,9.3,30.08,NW,307,3.0,3.0,78,0.00,,,0.00,Wunderground v.1.15,2013-03-21 09:50:00,
2013-03-21 04:55:00,14.8,9.2,30.08,NNE,23,3.0,3.0,78,0.00,,,0.00,Wunderground v.1.15,2013-03-21 09:55:00,
2013-03-21 05:00:00,14.8,9.5,30.08,NNE,16,3.0,3.0,79,0.00,,,0.00,Wunderground v.1.15,2013-03-21 10:00:00,
2013-03-21 05:05:00,14.7,9.4,30.08,North,354,3.0,3.0,79,0.00,,,0.00,Wunderground v.1.15,2013-03-21 10:05:00,
2013-03-21 05:15:00,14.6,9.3,30.08,NNE,30,2.0,3.0,79,0.00,,,0.00,Wunderground v.1.15,2013-03-21 10:15:00,
2013-03-21 05:20:00,14.5,9.2,30.08,WNW,298,2.0,3.0,79,0.00,,,0.00,Wunderground v.1.15,2013-03-21 10:20:00,
2013-03-21 05:25:00,14.4,9.1,30.08,WNW,294,2.0,3.0,79,0.00,,,0.00,Wunderground v.1.15,2013-03-21 10:25:00,
2013-03-21 05:30:00,14.3,9.0,30.08,NW,309,2.0,2.0,79,0.00,,,0.00,Wunderground v.1.15,2013-03-21 10:30:00,
2013-03-21 05:40:00,14.1,9.1,30.08,NW,318,2.0,2.0,80,0.00,,,0.00,Wunderground v.1.15,2013-03-21 10:40:00,
2013-03-21 05:45:00,14.0,9.0,30.09,NW,319,2.0,3.0,80,0.00,,,0.00,Wunderground v.1.15,2013-03-21 10:45:00,
2013-03-21 05:55:00,13.9,9.1,30.09,NW,321,2.0,2.0,81,0.00,,,0.00,Wunderground v.1.15,2013-03-21 10:55:00,
2013-03-21 06:00:00,13.8,9.0,30.08,NW,308,2.0,2.0,81,0.00,,,0.00,Wunderground v.1.15,2013-03-21 11:00:00,
2013-03-21 06:10:00,13.3,8.8,30.09,NW,316,0.0,0.0,82,0.00,,,0.00,Wunderground v.1.15,2013-03-21 11:10:00,
2013-03-21 06:15:00,12.9,8.4,30.09,NW,316,0.0,0.0,82,0.00,,,0.00,Wunderground v.1.15,2013-03-21 11:15:00,
2013-03-21 06:20:00,12.7,8.5,30.09,NW,323,0.0,1.0,83,0.00,,,0.00,Wunderground v.1.15,2013-03-21 11:20:00,
2013-03-21 06:30:00,12.7,8.5,30.08,WNW,293,1.0,1.0,83,0.00,,,0.00,Wunderground v.1.15,2013-03-21 11:30:00,
2013-03-21 06:35:00,12.5,8.3,30.09,WNW,283,1.0,1.0,83,0.00,,,0.00,Wunderground v.1.15,2013-03-21 11:35:00,
2013-03-21 06:40:00,12.2,8.3,30.08,WNW,282,1.0,2.0,84,0.00,,,0.00,Wunderground v.1.15,2013-03-21 11:40:00,
2013-03-21 06:45:00,11.9,8.0,30.09,WNW,285,1.0,2.0,84,0.00,,,0.00,Wunderground v.1.15,2013-03-21 11:45:00,
2013-03-21 06:50:00,11.6,7.7,30.09,WNW,285,1.0,1.0,84,0.00,,,0.00,Wunderground v.1.15,2013-03-21 11:50:00,
2013-03-21 06:55:00,11.6,8.0,30.09,WNW,297,0.0,1.0,85,0.00,,,0.00,Wunderground v.1.15,2013-03-21 11:55:00,
2013-03-21 07:01:00,11.7,8.1,30.09,WNW,296,1.0,1.0,85,0.00,,,0.00,Wunderground v.1.15,2013-03-21 12:01:00,
2013-03-21 07:05:00,11.7,8.1,30.09,WNW,295,1.0,1.0,85,0.00,,,0.00,Wunderground v.1.15,2013-03-21 12:05:00,
2013-03-21 07:10:00,11.9,8.3,30.09,West,272,1.0,1.0,85,0.00,,,0.00,Wunderground v.1.15,2013-03-21 12:10:00,
2013-03-21 07:15:00,12.2,8.6,30.10,West,269,0.0,1.0,85,0.00,,,0.00,Wunderground v.1.15,2013-03-21 12:15:00,
2013-03-21 07:20:00,12.3,8.7,30.10,West,271,0.0,1.0,85,0.00,,,0.00,Wunderground v.1.15,2013-03-21 12:20:00,
2013-03-21 07:25:00,12.2,8.3,30.10,West,272,1.0,1.0,84,0.00,,,0.00,Wunderground v.1.15,2013-03-21 12:25:00,
2013-03-21 07:30:00,12.4,8.7,30.10,West,273,1.0,1.0,85,0.00,,,0.00,Wunderground v.1.15,2013-03-21 12:30:00,
2013-03-21 07:35:00,12.6,8.9,30.10,West,273,1.0,1.0,85,0.00,,,0.00,Wunderground v.1.15,2013-03-21 12:35:00,
2013-03-21 07:40:00,12.9,9.2,30.10,WSW,255,1.0,1.0,85,0.00,,,0.00,Wunderground v.1.15,2013-03-21 12:40:00,
2013-03-21 07:45:00,13.2,9.5,30.11,NW,310,1.0,1.0,85,0.00,,,0.00,Wunderground v.1.15,2013-03-21 12:45:00,
2013-03-21 07:55:00,14.1,10.2,30.11,WNW,285,2.0,2.0,84,0.00,,,0.00,Wunderground v.1.15,2013-03-21 12:55:00,
2013-03-21 08:00:00,14.7,10.5,30.11,WNW,295,2.0,3.0,83,0.00,,,0.00,Wunderground v.1.15,2013-03-21 13:00:00,
2013-03-21 08:10:00,15.1,10.3,30.11,NW,306,3.0,4.0,81,0.00,,,0.00,Wunderground v.1.15,2013-03-21 13:10:00,
2013-03-21 08:15:00,15.4,10.6,30.11,WNW,293,3.0,6.0,81,0.00,,,0.00,Wunderground v.1.15,2013-03-21 13:15:00,
2013-03-21 08:20:00,15.6,10.5,30.11,NNE,23,4.0,4.0,80,0.00,,,0.00,Wunderground v.1.15,2013-03-21 13:20:00,
2013-03-21 08:25:00,15.9,10.5,30.11,WNW,290,4.0,4.0,79,0.00,,,0.00,Wunderground v.1.15,2013-03-21 13:25:00,
2013-03-21 08:30:00,16.2,10.8,30.11,NW,314,3.0,3.0,79,0.00,,,0.00,Wunderground v.1.15,2013-03-21 13:30:00,
2013-03-21 08:35:00,16.8,11.1,30.11,NW,316,2.0,3.0,78,0.00,,,0.00,Wunderground v.1.15,2013-03-21 13:35:00,
2013-03-21 08:45:00,17.2,10.9,30.11,North,356,3.0,3.0,76,0.00,,,0.00,Wunderground v.1.15,2013-03-21 13:45:00,
2013-03-21 08:50:00,17.8,11.5,30.11,NNE,27,3.0,3.0,76,0.00,,,0.00,Wunderground v.1.15,2013-03-21 13:50:00,
2013-03-21 08:55:00,18.2,11.6,30.11,North,7,3.0,4.0,75,0.00,,,0.00,Wunderground v.1.15,2013-03-21 13:55:00,
2013-03-21 09:01:00,18.5,11.0,30.11,NW,312,3.0,3.0,72,0.00,,,0.00,Wunderground v.1.15,2013-03-21 14:01:00,
2013-03-21 09:05:00,18.8,10.9,30.11,NW,325,3.0,5.0,71,0.00,,,0.00,Wunderground v.1.15,2013-03-21 14:05:00,
2013-03-21 09:10:00,18.9,10.7,30.11,WNW,300,3.0,5.0,70,0.00,,,0.00,Wunderground v.1.15,2013-03-21 14:10:00,
2013-03-21 09:20:00,19.4,10.6,30.11,West,260,3.0,3.0,68,0.00,,,0.00,Wunderground v.1.15,2013-03-21 14:20:00,
2013-03-21 09:25:00,19.5,10.0,30.11,WNW,298,3.0,4.0,66,0.00,,,0.00,Wunderground v.1.15,2013-03-21 14:25:00,
2013-03-21 09:35:00,20.3,10.7,30.11,West,271,2.0,2.0,66,0.00,,,0.00,Wunderground v.1.15,2013-03-21 14:35:00,
2013-03-21 09:45:00,20.4,9.1,30.11,NW,308,2.0,5.0,61,0.00,,,0.00,Wunderground v.1.15,2013-03-21 14:45:00,
2013-03-21 09:50:00,20.5,9.5,30.11,NE,53,2.0,3.0,62,0.00,,,0.00,Wunderground v.1.15,2013-03-21 14:50:00,
2013-03-21 09:55:00,21.0,9.6,30.11,NNW,328,2.0,3.0,61,0.00,,,0.00,Wunderground v.1.15,2013-03-21 14:55:00,
2013-03-21 10:00:00,21.1,9.7,30.11,SSW,211,2.0,2.0,61,0.00,,,0.00,Wunderground v.1.15,2013-03-21 15:00:00,
2013-03-21 10:05:00,21.3,9.2,30.11,NW,313,2.0,2.0,59,0.00,,,0.00,Wunderground v.1.15,2013-03-21 15:05:00,
2013-03-21 10:15:00,21.5,8.6,30.10,NW,313,3.0,4.0,57,0.00,,,0.00,Wunderground v.1.15,2013-03-21 15:15:00,
2013-03-21 10:25:00,22.0,9.5,30.10,WSW,238,2.0,3.0,58,0.00,,,0.00,Wunderground v.1.15,2013-03-21 15:25:00,
2013-03-21 10:30:00,22.2,10.0,30.10,SW,221,2.0,2.0,59,0.00,,,0.00,Wunderground v.1.15,2013-03-21 15:30:00,
2013-03-21 10:35:00,22.5,10.3,30.10,North,352,3.0,3.0,59,0.00,,,0.00,Wunderground v.1.15,2013-03-21 15:35:00,
2013-03-21 10:45:00,22.8,11.3,30.10,WSW,253,3.0,5.0,61,0.00,,,0.00,Wunderground v.1.15,2013-03-21 15:45:00,
2013-03-21 10:50:00,23.5,11.3,30.10,NW,313,3.0,5.0,59,0.00,,,0.00,Wunderground v.1.15,2013-03-21 15:50:00,
2013-03-21 10:55:00,23.2,10.2,30.09,WSW,248,2.0,5.0,57,0.00,,,0.00,Wunderground v.1.15,2013-03-21 15:55:00,
2013-03-21 11:00:00,23.8,10.0,30.10,WNW,297,2.0,4.0,55,0.00,,,0.00,Wunderground v.1.15,2013-03-21 16:00:00,
2013-03-21 11:05:00,24.0,9.7,30.10,NNE,25,3.0,4.0,54,0.00,,,0.00,Wunderground v.1.15,2013-03-21 16:05:00,
2013-03-21 11:10:00,24.3,10.8,30.10,NNE,15,3.0,3.0,56,0.00,,,0.00,Wunderground v.1.15,2013-03-21 16:10:00,
2013-03-21 11:20:00,24.8,11.3,30.10,West,277,3.0,3.0,56,0.00,,,0.00,Wunderground v.1.15,2013-03-21 16:20:00,
2013-03-21 11:30:00,24.8,10.5,30.09,NNE,27,3.0,3.0,54,0.00,,,0.00,Wunderground v.1.15,2013-03-21 16:30:00,
2013-03-21 11:40:00,25.2,12.1,30.09,SW,231,3.0,7.0,57,0.00,,,0.00,Wunderground v.1.15,2013-03-21 16:40:00,
2013-03-21 11:45:00,25.7,12.6,30.09,SW,221,4.0,7.0,57,0.00,,,0.00,Wunderground v.1.15,2013-03-21 16:45:00,
2013-03-21 11:50:00,26.1,12.5,30.09,WSW,241,5.0,5.0,56,0.00,,,0.00,Wunderground v.1.15,2013-03-21 16:50:00,
2013-03-21 11:55:00,26.6,11.7,30.09,NW,312,4.0,6.0,53,0.00,,,0.00,Wunderground v.1.15,2013-03-21 16:55:00,
2013-03-21 12:00:00,26.4,11.1,30.09,West,276,3.0,3.0,52,0.00,,,0.00,Wunderground v.1.15,2013-03-21 17:00:00,
2013-03-21 12:05:00,26.5,11.7,30.09,SW,231,3.0,4.0,53,0.00,,,0.00,Wunderground v.1.15,2013-03-21 17:05:00,
2013-03-21 12:10:00,26.6,12.2,30.09,SW,231,4.0,7.0,54,0.00,,,0.00,Wunderground v.1.15,2013-03-21 17:10:00,
2013-03-21 12:15:00,26.6,12.2,30.09,SW,233,6.0,7.0,54,0.00,,,0.00,Wunderground v.1.15,2013-03-21 17:15:00,
2013-03-21 12:20:00,26.7,11.8,30.09,NNW,340,5.0,5.0,53,0.00,,,0.00,Wunderground v.1.15,2013-03-21 17:20:00,
2013-03-21 12:25:00,27.1,12.2,30.09,SSW,203,2.0,5.0,53,0.00,,,0.00,Wunderground v.1.15,2013-03-21 17:25:00,
2013-03-21 12:30:00,27.5,11.7,30.09,WNW,284,2.0,3.0,51,0.00,,,0.00,Wunderground v.1.15,2013-03-21 17:30:00,
2013-03-21 12:35:00,27.7,11.9,30.09,West,279,3.0,5.0,51,0.00,,,0.00,Wunderground v.1.15,2013-03-21 17:35:00,
2013-03-21 12:40:00,27.6,12.7,30.09,WSW,238,4.0,5.0,53,0.00,,,0.00,Wunderground v.1.15,2013-03-21 17:40:00,
2013-03-21 12:45:00,27.5,12.2,30.08,ESE,106,4.0,5.0,52,0.00,,,0.00,Wunderground v.1.15,2013-03-21 17:45:00,
2013-03-21 12:55:00,28.6,11.8,30.08,NW,314,3.0,3.0,49,0.00,,,0.00,Wunderground v.1.15,2013-03-21 17:55:00,
2013-03-21 13:00:00,28.6,12.3,30.08,NNE,27,3.0,5.0,50,0.00,,,0.00,Wunderground v.1.15,2013-03-21 18:00:00,
2013-03-21 13:05:00,28.5,12.6,30.08,SSW,203,3.0,5.0,51,0.00,,,0.00,Wunderground v.1.15,2013-03-21 18:05:00,
2013-03-21 13:10:00,28.8,12.9,30.07,NE,49,3.0,6.0,51,0.00,,,0.00,Wunderground v.1.15,2013-03-21 18:10:00,
2013-03-21 13:15:00,28.9,13.5,30.07,NW,314,3.0,6.0,52,0.00,,,0.00,Wunderground v.1.15,2013-03-21 18:15:00,
2013-03-21 13:20:00,29.2,12.8,30.07,WNW,289,3.0,3.0,50,0.00,,,0.00,Wunderground v.1.15,2013-03-21 18:20:00,
2013-03-21 13:25:00,29.6,13.2,30.07,WSW,240,3.0,3.0,50,0.00,,,0.00,Wunderground v.1.15,2013-03-21 18:25:00,
2013-03-21 13:30:00,30.2,14.2,30.07,SSW,200,2.0,2.0,51,0.00,,,0.00,Wunderground v.1.15,2013-03-21 18:30:00,
2013-03-21 13:35:00,30.5,13.6,30.07,NW,309,3.0,3.0,49,0.00,,,0.00,Wunderground v.1.15,2013-03-21 18:35:00,
2013-03-21 13:45:00,30.4,13.0,30.07,West,280,3.0,3.0,48,0.00,,,0.00,Wunderground v.1.15,2013-03-21 18:45:00,
2013-03-21 13:55:00,32.0,14.5,30.06,WSW,257,1.0,2.0,48,0.00,,,0.00,Wunderground v.1.15,2013-03-21 18:55:00,
2013-03-21 14:00:00,32.5,15.9,30.06,WSW,243,2.0,8.0,50,0.00,,,0.00,Wunderground v.1.15,2013-03-21 19:00:00,
2013-03-21 14:05:00,32.7,16.1,30.06,South,191,4.0,8.0,50,0.00,,,0.00,Wunderground v.1.15,2013-03-21 19:05:00,
2013-03-21 14:10:00,32.3,14.8,30.06,SSW,203,4.0,5.0,48,0.00,,,0.00,Wunderground v.1.15,2013-03-21 19:10:00,
2013-03-21 14:15:00,31.9,14.4,30.06,SW,218,4.0,5.0,48,0.00,,,0.00,Wunderground v.1.15,2013-03-21 19:15:00,
2013-03-21 14:25:00,32.0,14.0,30.05,West,262,3.0,4.0,47,0.00,,,0.00,Wunderground v.1.15,2013-03-21 19:25:00,
2013-03-21 14:30:00,32.3,14.3,30.05,WNW,298,3.0,3.0,47,0.00,,,0.00,Wunderground v.1.15,2013-03-21 19:30:00,
2013-03-21 14:35:00,32.4,15.3,30.04,SSW,212,2.0,3.0,49,0.00,,,0.00,Wunderground v.1.15,2013-03-21 19:35:00,
2013-03-21 14:40:00,32.9,14.8,30.04,ESE,110,3.0,3.0,47,0.00,,,0.00,Wunderground v.1.15,2013-03-21 19:40:00,
2013-03-21 14:45:00,32.5,13.5,30.04,ENE,67,3.0,3.0,45,0.00,,,0.00,Wunderground v.1.15,2013-03-21 19:45:00,
2013-03-21 14:50:00,32.8,14.8,30.04,NNW,330,2.0,2.0,47,0.00,,,0.00,Wunderground v.1.15,2013-03-21 19:50:00,
2013-03-21 14:55:00,32.9,14.4,30.04,West,271,3.0,3.0,46,0.00,,,0.00,Wunderground v.1.15,2013-03-21 19:55:00,
2013-03-21 15:00:00,33.1,14.5,30.03,WNW,294,3.0,4.0,46,0.00,,,0.00,Wunderground v.1.15,2013-03-21 20:00:00,
2013-03-21 15:05:00,33.0,13.9,30.03,ENE,63,2.0,4.0,45,0.00,,,0.00,Wunderground v.1.15,2013-03-21 20:05:00,
2013-03-21 15:10:00,33.2,15.1,30.03,WNW,299,3.0,3.0,47,0.00,,,0.00,Wunderground v.1.15,2013-03-21 20:10:00,
2013-03-21 15:15:00,33.9,14.8,30.03,NW,309,2.0,3.0,45,0.00,,,0.00,Wunderground v.1.15,2013-03-21 20:15:00,
2013-03-21 15:25:00,34.5,15.3,30.02,WNW,289,2.0,4.0,45,0.00,,,0.00,Wunderground v.1.15,2013-03-21 20:25:00,
2013-03-21 15:30:00,34.3,15.6,30.02,West,263,3.0,6.0,46,0.00,,,0.00,Wunderground v.1.15,2013-03-21 20:30:00,
2013-03-21 15:40:00,34.2,15.0,30.02,SSW,198,4.0,5.0,45,0.00,,,0.00,Wunderground v.1.15,2013-03-21 20:40:00,
2013-03-21 15:45:00,34.6,15.4,30.02,NE,55,3.0,5.0,45,0.00,,,0.00,Wunderground v.1.15,2013-03-21 20:45:00,
2013-03-21 15:50:00,34.3,14.1,30.02,WNW,289,3.0,3.0,43,0.00,,,0.00,Wunderground v.1.15,2013-03-21 20:50:00,
2013-03-21 15:55:00,34.2,15.5,30.02,West,265,3.0,3.0,46,0.00,,,0.00,Wunderground v.1.15,2013-03-21 20:55:00,
2013-03-21 16:00:00,34.2,14.5,30.02,SW,214,2.0,2.0,44,0.00,,,0.00,Wunderground v.1.15,2013-03-21 21:00:00,
2013-03-21 16:10:00,33.8,14.2,30.02,East,79,2.0,2.0,44,0.00,,,0.00,Wunderground v.1.15,2013-03-21 21:10:00,
2013-03-21 16:15:00,34.3,14.6,30.02,WNW,284,2.0,4.0,44,0.00,,,0.00,Wunderground v.1.15,2013-03-21 21:15:00,
2013-03-21 16:20:00,34.3,14.1,30.02,NW,320,3.0,3.0,43,0.00,,,0.00,Wunderground v.1.15,2013-03-21 21:20:00,
2013-03-21 16:25:00,34.6,14.4,30.01,ENE,72,2.0,3.0,43,0.00,,,0.00,Wunderground v.1.15,2013-03-21 21:25:00,
2013-03-21 16:35:00,35.8,14.9,30.01,NW,323,2.0,4.0,42,0.00,,,0.00,Wunderground v.1.15,2013-03-21 21:35:00,
2013-03-21 16:40:00,35.8,14.9,30.01,WNW,291,2.0,2.0,42,0.00,,,0.00,Wunderground v.1.15,2013-03-21 21:40:00,
2013-03-21 16:45:00,35.5,14.1,30.01,WNW,297,3.0,3.0,41,0.00,,,0.00,Wunderground v.1.15,2013-03-21 21:45:00,
2013-03-21 16:50:00,35.1,15.3,30.01,West,273,3.0,3.0,44,0.00,,,0.00,Wunderground v.1.15,2013-03-21 21:50:00,
2013-03-21 16:55:00,35.2,13.8,30.01,SW,231,2.0,3.0,41,0.00,,,0.00,Wunderground v.1.15,2013-03-21 21:55:00,
2013-03-21 17:00:00,35.3,14.5,30.01,WSW,250,2.0,2.0,42,0.00,,,0.00,Wunderground v.1.15,2013-03-21 22:00:00,
2013-03-21 17:05:00,35.4,14.6,30.01,NNE,21,2.0,3.0,42,0.00,,,0.00,Wunderground v.1.15,2013-03-21 22:05:00,
2013-03-21 17:10:00,34.8,13.5,30.01,East,84,2.0,2.0,41,0.00,,,0.00,Wunderground v.1.15,2013-03-21 22:10:00,
2013-03-21 17:20:00,34.5,13.2,30.01,WNW,283,2.0,3.0,41,0.00,,,0.00,Wunderground v.1.15,2013-03-21 22:20:00,
2013-03-21 17:25:00,34.6,13.8,30.01,North,4,2.0,4.0,42,0.00,,,0.00,Wunderground v.1.15,2013-03-21 22:25:00,
2013-03-21 17:30:00,34.5,13.2,30.01,NNE,17,3.0,3.0,41,0.00,,,0.00,Wunderground v.1.15,2013-03-21 22:30:00,
2013-03-21 17:35:00,34.5,13.2,30.01,WNW,285,2.0,3.0,41,0.00,,,0.00,Wunderground v.1.15,2013-03-21 22:35:00,
2013-03-21 17:40:00,34.7,13.9,30.01,NNE,27,1.0,1.0,42,0.00,,,0.00,Wunderground v.1.15,2013-03-21 22:40:00,
2013-03-21 17:45:00,35.0,14.2,30.01,West,280,1.0,1.0,42,0.00,,,0.00,Wunderground v.1.15,2013-03-21 22:45:00,
2013-03-21 17:50:00,35.1,13.7,30.01,SW,222,1.0,2.0,41,0.00,,,0.00,Wunderground v.1.15,2013-03-21 22:50:00,
2013-03-21 17:55:00,35.1,13.7,30.01,WNW,282,1.0,2.0,41,0.00,,,0.00,Wunderground v.1.15,2013-03-21 22:55:00,
2013-03-21 18:01:00,34.9,13.0,30.01,West,281,2.0,2.0,40,0.00,,,0.00,Wunderground v.1.15,2013-03-21 23:01:00,
2013-03-21 18:05:00,34.7,12.8,30.01,NW,311,2.0,2.0,40,0.00,,,0.00,Wunderground v.1.15,2013-03-21 23:05:00,
2013-03-21 18:15:00,34.5,13.2,30.01,NNE,23,2.0,2.0,41,0.00,,,0.00,Wunderground v.1.15,2013-03-21 23:15:00,
2013-03-21 18:20:00,34.5,13.2,30.01,NW,309,1.0,1.0,41,0.00,,,0.00,Wunderground v.1.15,2013-03-21 23:20:00,
2013-03-21 18:25:00,34.6,12.7,30.01,WSW,250,0.0,1.0,40,0.00,,,0.00,Wunderground v.1.15,2013-03-21 23:25:00,
2013-03-21 18:30:00,34.3,12.4,30.01,WNW,290,1.0,3.0,40,0.00,,,0.00,Wunderground v.1.15,2013-03-21 23:30:00,
2013-03-21 18:35:00,34.3,13.6,30.01,West,269,2.0,3.0,42,0.00,,,0.00,Wunderground v.1.15,2013-03-21 23:35:00,
2013-03-21 18:40:00,34.4,13.1,30.01,West,269,1.0,1.0,41,0.00,,,0.00,Wunderground v.1.15,2013-03-21 23:40:00,
2013-03-21 18:50:00,34.8,13.5,30.01,West,269,0.0,0.0,41,0.00,,,0.00,Wunderground v.1.15,2013-03-21 23:50:00,
2013-03-21 18:55:00,34.5,13.7,30.01,West,273,0.0,0.0,42,0.00,,,0.00,Wunderground v.1.15,2013-03-21 23:55:00,
2013-03-21 19:00:00,34.1,13.4,30.02,West,273,0.0,0.0,42,0.00,,,0.00,Wunderground v.1.15,2013-03-22 00:00:00,
2013-03-21 19:05:00,33.5,13.4,30.02,West,273,0.0,0.0,43,0.00,,,0.00,Wunderground v.1.15,2013-03-22 00:05:00,
2013-03-21 19:10:00,32.9,13.3,30.02,West,273,0.0,0.0,44,0.00,,,0.00,Wunderground v.1.15,2013-03-22 00:10:00,
2013-03-21 19:20:00,32.0,13.0,30.02,West,272,0.0,0.0,45,0.00,,,0.00,Wunderground v.1.15,2013-03-22 00:20:00,
2013-03-21 19:30:00,31.3,13.4,30.02,West,272,0.0,0.0,47,0.00,,,0.00,Wunderground v.1.15,2013-03-22 00:30:00,
2013-03-21 19:35:00,31.0,13.1,30.02,West,273,0.0,0.0,47,0.00,,,0.00,Wunderground v.1.15,2013-03-22 00:35:00,
2013-03-21 19:40:00,30.8,12.9,30.02,West,273,0.0,0.0,47,0.00,,,0.00,Wunderground v.1.15,2013-03-22 00:40:00,
2013-03-21 19:45:00,30.6,13.2,30.02,West,273,0.0,0.0,48,0.00,,,0.00,Wunderground v.1.15,2013-03-22 00:45:00,
2013-03-21 19:50:00,30.4,13.5,30.02,West,273,0.0,0.0,49,0.00,,,0.00,Wunderground v.1.15,2013-03-22 00:50:00,
2013-03-21 19:55:00,30.1,13.2,30.02,West,273,0.0,0.0,49,0.00,,,0.00,Wunderground v.1.15,2013-03-22 00:55:00,
2013-03-21 20:00:00,30.0,13.1,30.02,West,273,0.0,0.0,49,0.00,,,0.00,Wunderground v.1.15,2013-03-22 01:00:00,
2013-03-21 20:05:00,29.8,13.4,30.03,West,273,0.0,0.0,50,0.00,,,0.00,Wunderground v.1.15,2013-03-22 01:05:00,
2013-03-21 20:10:00,29.6,13.2,30.03,West,273,0.0,0.0,50,0.00,,,0.00,Wunderground v.1.15,2013-03-22 01:10:00,
2013-03-21 20:20:00,29.6,13.7,30.03,West,274,0.0,0.0,51,0.00,,,0.00,Wunderground v.1.15,2013-03-22 01:20:00,
2013-03-21 20:30:00,29.0,14.0,30.03,ENE,58,2.0,2.0,53,0.00,,,0.00,Wunderground v.1.15,2013-03-22 01:30:00,
2013-03-21 20:35:00,29.3,13.4,30.03,NE,49,2.0,2.0,51,0.00,,,0.00,Wunderground v.1.15,2013-03-22 01:35:00,
2013-03-21 20:40:00,29.7,14.2,30.03,NE,46,2.0,2.0,52,0.00,,,0.00,Wunderground v.1.15,2013-03-22 01:40:00,
2013-03-21 20:50:00,29.3,13.8,30.03,NE,46,0.0,0.0,52,0.00,,,0.00,Wunderground v.1.15,2013-03-22 01:50:00,
2013-03-21 21:00:00,29.4,14.4,30.03,NE,45,0.0,0.0,53,0.00,,,0.00,Wunderground v.1.15,2013-03-22 02:00:00,
2013-03-21 21:10:00,30.0,14.0,30.03,NE,46,0.0,0.0,51,0.00,,,0.00,Wunderground v.1.15,2013-03-22 02:10:00,
2013-03-21 21:15:00,30.1,13.7,30.03,NE,45,0.0,0.0,50,0.00,,,0.00,Wunderground v.1.15,2013-03-22 02:15:00,
2013-03-21 21:20:00,30.1,13.7,30.04,NE,45,0.0,0.0,50,0.00,,,0.00,Wunderground v.1.15,2013-03-22 02:20:00,
2013-03-21 21:25:00,29.8,13.4,30.04,SSE,155,0.0,4.0,50,0.00,,,0.00,Wunderground v.1.15,2013-03-22 02:25:00,
2013-03-21 21:30:00,28.8,14.6,30.04,South,187,1.0,1.0,55,0.00,,,0.00,Wunderground v.1.15,2013-03-22 02:30:00,
2013-03-21 21:35:00,28.1,15.6,30.04,South,188,2.0,2.0,59,0.00,,,0.00,Wunderground v.1.15,2013-03-22 02:35:00,
2013-03-21 21:45:00,27.4,15.3,30.05,South,188,0.0,1.0,60,0.00,,,0.00,Wunderground v.1.15,2013-03-22 02:45:00,
2013-03-21 21:50:00,27.5,14.6,30.05,South,188,0.0,1.0,58,0.00,,,0.00,Wunderground v.1.15,2013-03-22 02:50:00,
2013-03-21 22:01:00,28.0,13.9,30.05,South,191,1.0,1.0,55,0.00,,,0.00,Wunderground v.1.15,2013-03-22 03:01:00,
2013-03-21 22:05:00,27.7,14.0,30.05,South,191,0.0,1.0,56,0.00,,,0.00,Wunderground v.1.15,2013-03-22 03:05:00,
2013-03-21 22:15:00,27.9,13.4,30.05,SW,221,1.0,1.0,54,0.00,,,0.00,Wunderground v.1.15,2013-03-22 03:15:00,
2013-03-21 22:20:00,27.9,13.4,30.05,SW,221,1.0,1.0,54,0.00,,,0.00,Wunderground v.1.15,2013-03-22 03:20:00,
2013-03-21 22:30:00,27.9,13.0,30.05,SW,221,0.0,0.0,53,0.00,,,0.00,Wunderground v.1.15,2013-03-22 03:30:00,
2013-03-21 22:35:00,27.5,13.0,30.05,SW,221,0.0,0.0,54,0.00,,,0.00,Wunderground v.1.15,2013-03-22 03:35:00,
2013-03-21 22:40:00,26.7,14.7,30.05,East,89,0.0,0.0,60,0.00,,,0.00,Wunderground v.1.15,2013-03-22 03:40:00,
2013-03-21 22:45:00,26.2,13.8,30.04,East,89,0.0,0.0,59,0.00,,,0.00,Wunderground v.1.15,2013-03-22 03:45:00,
2013-03-21 22:55:00,25.8,13.4,30.04,East,91,0.0,0.0,59,0.00,,,0.00,Wunderground v.1.15,2013-03-22 03:55:00,
2013-03-21 23:00:00,26.4,14.8,30.04,East,90,0.0,0.0,61,0.00,,,0.00,Wunderground v.1.15,2013-03-22 04:00:00,
2013-03-21 23:10:00,26.0,14.8,30.04,East,89,0.0,0.0,62,0.00,,,0.00,Wunderground v.1.15,2013-03-22 04:10:00,
2013-03-21 23:15:00,26.0,15.1,30.04,East,89,0.0,0.0,63,0.00,,,0.00,Wunderground v.1.15,2013-03-22 04:15:00,
2013-03-21 23:20:00,26.2,15.3,30.04,East,89,0.0,0.0,63,0.00,,,0.00,Wunderground v.1.15,2013-03-22 04:20:00,
2013-03-21 23:25:00,26.2,14.9,30.04,East,89,0.0,0.0,62,0.00,,,0.00,Wunderground v.1.15,2013-03-22 04:25:00,
2013-03-21 23:30:00,26.1,14.5,30.04,East,89,0.0,0.0,61,0.00,,,0.00,Wunderground v.1.15,2013-03-22 04:30:00,
2013-03-21 23:40:00,26.1,14.8,30.04,East,89,0.0,0.0,62,0.00,,,0.00,Wunderground v.1.15,2013-03-22 04:40:00,
2013-03-21 23:50:00,25.7,14.8,30.04,East,89,0.0,0.0,63,0.00,,,0.00,Wunderground v.1.15,2013-03-22 04:50:00,
2013-03-21 23:55:00,25.3,14.8,30.04,East,89,0.0,0.0,64,0.00,,,0.00,Wunderground v.1.15,2013-03-22 04:55:00,